EST,Max TemperatureF,Mean TemperatureF,Min TemperatureF,Max Dew PointF,MeanDew PointF,Min DewpointF,Max Humidity, Mean Humidity, Min Humidity, Max Sea Level PressureIn, Mean Sea Level PressureIn, Min Sea Level PressureIn, Max VisibilityMiles, Mean VisibilityMiles, Min VisibilityMiles, Max Wind SpeedMPH, Mean Wind SpeedMPH, Max Gust SpeedMPH,PrecipitationIn, CloudCover, Events, WindDirDegrees
2012-11-1,73,57,41,52,47,39,100,81,31,30.03,29.98,29.91,10,10,8,14,3,23,0.00,0,,247
2012-11-2,77,57,37,52,43,37,100,81,29,30.10,30.03,29.98,10,10,8,17,2,,0.00,0,,231
2012-11-3,82,66,51,63,56,52,100,90,39,30.14,30.07,30.04,10,8,0,7,2,,0.00,1,Fog,245
2012-11-4,82,66,50,63,57,50,100,89,42,30.10,30.05,29.98,10,6,0,14,2,,0.00,1,Fog,216
2012-11-5,73,60,46,64,55,41,100,87,31,30.02,29.98,29.95,10,7,0,10,4,,0.00,1,Fog,291
2012-11-6,73,58,44,59,51,45,100,94,57,29.98,29.91,29.82,10,7,2,8,1,,0.00,2,Rain,338
2012-11-7,59,50,42,52,46,41,100,86,55,30.02,29.94,29.89,10,10,5,12,5,,0.00,5,Rain,312
2012-11-8,64,50,35,48,41,36,100,89,42,30.20,30.11,30.02,10,10,8,9,3,,0.00,0,,310
2012-11-9,71,52,32,45,38,32,100,86,28,30.31,30.24,30.19,10,10,6,6,0,,0.00,0,,180
2012-11-10,71,52,33,55,44,34,100,90,50,30.37,30.31,30.24,10,9,5,12,1,,0.00,0,,74
2012-11-11,66,57,48,63,56,48,100,100,88,30.33,30.31,30.28,10,5,0,5,0,,0.00,4,Fog,347
2012-11-12,77,66,55,68,61,55,100,95,65,30.29,30.24,30.20,10,5,0,12,1,,0.02,3,Fog-Rain,92
2012-11-13,77,66,55,66,62,55,100,92,65,30.22,30.18,30.12,10,7,0,12,1,,0.00,3,Fog,352
2012-11-14,66,60,55,64,59,55,100,99,94,30.26,30.21,30.18,7,3,1,13,8,17,0.00,8,,15
2012-11-15,57,54,50,55,53,50,100,96,82,30.23,30.18,30.14,9,3,0,14,6,,0.00,8,Fog,350
2012-11-16,53,50,48,52,50,48,100,94,88,30.25,30.21,30.19,10,7,2,12,7,,0.00,8,,352
2012-11-17,64,58,51,55,50,46,94,84,72,30.27,30.23,30.19,10,10,5,13,8,16,0.00,7,,2
2012-11-18,68,59,50,55,49,46,100,81,56,30.27,30.22,30.17,10,10,10,12,8,20,0.00,5,,358
2012-11-19,57,55,53,55,52,50,100,89,77,30.21,30.17,30.13,10,10,5,15,8,,0.00,8,,351
2012-11-20,68,60,53,55,54,50,100,88,60,30.14,30.09,30.04,10,10,10,12,2,,0.00,3,Rain,357
2012-11-21,68,54,39,54,48,39,100,87,43,30.13,30.08,30.05,10,10,7,12,2,,0.00,0,,356
2012-11-22,66,50,35,45,37,32,100,89,28,30.20,30.16,30.11,10,9,4,16,1,,0.00,0,,353
2012-11-23,71,52,32,50,38,30,100,86,33,30.23,30.15,30.07,10,10,8,9,1,,0.00,0,,253
2012-11-24,66,50,33,50,43,32,100,87,30,30.12,30.07,30.02,10,10,6,13,2,,0.00,0,,277
2012-11-25,66,46,26,37,29,23,100,82,19,30.22,30.15,30.11,10,10,10,6,1,,0.00,0,,320
2012-11-26,71,50,28,43,33,27,100,84,21,30.26,30.20,30.17,10,10,10,7,0,,0.00,0,,30
2012-11-27,77,59,41,61,51,41,100,88,54,30.20,30.17,30.10,10,10,5,14,2,,0.00,2,Rain,302
2012-11-28,59,52,44,57,52,45,100,96,82,30.35,30.26,30.16,10,7,2,12,5,,0.00,6,,354
2012-11-29,68,55,42,55,48,43,100,94,64,30.37,30.32,30.30,10,6,1,14,3,,0.00,1,,12
2012-11-30,73,60,48,57,53,48,100,92,53,30.33,30.29,30.24,10,7,2,8,1,,0.00,3,,32